Kuantan, Malaysia

11:34 PM +08 on October 16, 2019 (GMT +0800)
Kuantan

Weather History for WMKD - August, 2019

Change the Weather History Date:

Monday, August 5, 2019

  Actual Average (WUND) Record (WUND)
Temperature  
Mean Temperature 84 °F -  
Max Temperature 92 °F 90 °F - (-1)
Min Temperature 76 °F 72 °F - (-1)
Cooling Degree Days 19    
Growing Degree Days 34 (Base 50)    
Moisture  
Dew Point 76 °F    
Average Humidity 78    
Maximum Humidity 94    
Minimum Humidity 56    
Precipitation  
Precipitation 0.01 in 0.24 in - ()
Sea Level Pressure  
Sea Level Pressure 29.78 in    
Wind  
Wind Speed 2 mph ()    
Max Wind Speed 6 mph    
Max Gust Speed -    
Visibility 4.8 miles    
Events      
Averages and records for this station are not official NWS values.
T = Trace of Precipitation, MM = Missing Value Source: Averaged Metar Reports

Daily Weather History Graph

Daily Weather History Graph

Search for Another Location

Airport or City:

Astronomy

Aug. 05, 2019 Rise Set
Actual Time 7:05 AM +08 7:21 PM +08
Civil Twilight 6:43 AM +08 7:43 PM +08
Nautical Twilight 6:18 AM +08 8:08 PM +08
Astronomical Twilight 5:52 AM +08 8:33 PM +08
Moon 10:52 AM +08 (8/5) 11:16 PM +08 (8/5)
Length of Visible Light 12h 59m
Length of Day
12h 16m
Waxing Crescent, 22% of the Moon is Illuminated
Aug 5
Waxing Crescent
Aug 8
First Quarter
Aug 15
Full
Aug 23
Last Quarter
Aug 30
New

Hourly Weather History & Observations

Time (+08) Temp. Heat Index Dew Point Humidity Pressure Visibility Wind Dir Wind Speed Gust Speed Precip Events Conditions
12:00 AM 80.6 °F 87.1 °F 77.0 °F 89% 29.80 in 6.2 mi Calm Calm - N/A   Mostly Cloudy
1:00 AM 78.8 °F - 77.0 °F 94% 29.80 in 6.2 mi Calm Calm - N/A   Mostly Cloudy
2:00 AM 79 °F - 77 °F 92% 29.80 in 6 mi Calm Calm - -   Haze
2:00 AM 78.8 °F - 77.0 °F 94% 29.80 in 6.2 mi Calm Calm - N/A   Mostly Cloudy
3:00 AM 78.8 °F - 77.0 °F 94% 29.77 in 5.6 mi Variable 2.3 mph - N/A   Mostly Cloudy
4:00 AM 78.8 °F - 75.2 °F 89% 29.77 in 5.6 mi Calm Calm - N/A   Mostly Cloudy
5:00 AM 77.0 °F - 75.2 °F 94% 29.77 in 5.6 mi Calm Calm - N/A   Mostly Cloudy
6:00 AM 77.0 °F - 75.2 °F 94% 29.77 in 5.6 mi Calm Calm - N/A   Mostly Cloudy
7:00 AM 77.0 °F - 73.4 °F 89% 29.77 in 6.2 mi Calm Calm - N/A   Mostly Cloudy
8:00 AM 78 °F - 74 °F 83% 29.82 in 6 mi SSW 4.6 mph - -   Haze
8:00 AM 78.8 °F - 73.4 °F 83% 29.80 in 5.6 mi SSW 4.6 mph - N/A   Mostly Cloudy
9:00 AM 80.6 °F 86.2 °F 75.2 °F 84% 29.83 in 6.2 mi Variable 2.3 mph - N/A   Mostly Cloudy
10:00 AM 82.4 °F 89.5 °F 75.2 °F 79% 29.83 in 6.2 mi Variable 4.6 mph - N/A   Mostly Cloudy
11:00 AM 84 °F - 75 °F 69% 29.85 in 2 mi South 4.6 mph - -   Haze
11:00 AM 84.2 °F 92.3 °F 75.2 °F 74% 29.83 in 2.5 mi Variable 4.6 mph - N/A   Haze
12:00 PM 86.0 °F 96.9 °F 77.0 °F 74% 29.83 in 1.2 mi Variable 4.6 mph - N/A   Haze
1:00 PM 87.8 °F 99.7 °F 77.0 °F 70% 29.80 in 1.2 mi Variable 5.8 mph - N/A   Haze
2:00 PM 90 °F - 77 °F 59% 29.77 in 1 mi South 5.8 mph - -   Haze
2:00 PM 89.6 °F 102.2 °F 77.0 °F 66% 29.77 in 1.2 mi Variable 5.8 mph - N/A   Haze
3:00 PM 91.4 °F 107.2 °F 78.8 °F 66% 29.74 in 2.5 mi Variable 5.8 mph - N/A   Haze
4:00 PM 91.4 °F 107.2 °F 78.8 °F 66% 29.71 in 4.3 mi Variable 5.8 mph - N/A   Mostly Cloudy
5:00 PM 91 °F - 77 °F 56% 29.72 in 5 mi South 5.8 mph - -   Haze
5:00 PM 91.4 °F 105.1 °F 77.0 °F 63% 29.71 in 5.0 mi Variable 5.8 mph - N/A   Mostly Cloudy
6:00 PM 89.6 °F 102.2 °F 77.0 °F 66% 29.71 in 5.0 mi Variable 4.6 mph - N/A   Mostly Cloudy
7:00 PM 87.8 °F 99.7 °F 77.0 °F 70% 29.71 in 4.3 mi Variable 2.3 mph - N/A   Mostly Cloudy
8:00 PM 85 °F - 75 °F 66% 29.74 in 6 mi South 3.5 mph - -   Haze
9:00 PM 84.2 °F 92.3 °F 75.2 °F 74% 29.74 in 6.2 mi Variable 3.5 mph - N/A   Mostly Cloudy
10:00 PM 82.4 °F 89.5 °F 75.2 °F 79% 29.77 in 6.2 mi Variable 2.3 mph - N/A   Mostly Cloudy
11:00 PM 81 °F - 75 °F 77% 29.80 in 7 mi Calm Calm - -   Haze
11:00 PM 80.6 °F 86.2 °F 75.2 °F 84% 29.80 in 6.2 mi Calm Calm - N/A   Mostly Cloudy